Home > Weather > Tallahassee > Past weeks

Flag for U.S.A. Weather for the Past 2 Weeks in Tallahassee, Florida, U.S.A.

Now
32 °F

Clear.


Feels Like: 32 °F
Forecast: 36 / 63 °F
Wind: No wind

Location: Tallahassee Regional Airport

Current Time: Feb 8, 2016 at 5:20:05 AM

Latest Report: Feb 8, 2016 at 4:53 AM


Visibility: 10 mi

Pressure: 30.03 "Hg

Humidity: 82%

Dew point: 27 °F

Location of TallahasseeLocation

Historic Weather in Tallahassee — Graph

°F

Tallahassee Temperature Yesterday

Maximum temperature yesterday: 60 °F (at 2:53 PM)
Minimum temperature yesterday: 36 °F (at 6:53 AM)
Average temperature yesterday: 47 °F

High & Low Weather Summary for the Past Weeks

 TemperatureHumidityPressure
High79 °F (Feb 1, 3:53 PM)97% (Feb 2, 4:53 AM)30.40 "Hg (Feb 2, 4:53 AM)
Low28 °F (Jan 25, 4:53 AM)19% (Feb 5, 2:53 PM)29.82 "Hg (Jan 28, 4:53 PM)
Average54 °F70%30.10 "Hg
* Reported Jan 24 3:53 AM — Feb 8 3:53 AM, Tallahassee, Weather by CustomWeather, © 2016

Note: Actual official high and low records may vary slightly from our data, if they occured in-between our weather recording intervals... More about our weather records

Advertising

Tallahassee Weather History for the Previous 24 Hours

 ConditionsComfort  
Time TempWeatherWind HumidityBarometerVisibility
3:53 AM
Mon, Feb 8
31 °FClear.No wind85%30.04 "Hg10 mi
2:53 AM32 °FClear.No wind82%30.05 "Hg10 mi
1:53 AM34 °FClear.No wind79%30.06 "Hg10 mi
12:53 AM35 °FClear.No wind78%30.07 "Hg10 mi
11:53 PM
Sun, Feb 7
36 °FClear.No wind79%30.08 "Hg10 mi
10:53 PM38 °FClear.No wind73%30.09 "Hg10 mi
9:53 PM40 °FClear.No wind70%30.08 "Hg10 mi
8:53 PM41 °FClear.No wind67%30.07 "Hg10 mi
7:53 PM45 °FClear.No wind56%30.06 "Hg10 mi
6:53 PM49 °FClear.5 mph46%30.03 "Hg10 mi
5:53 PM58 °FSunny.7 mph27%30.02 "Hg10 mi
4:53 PM59 °FSunny.12 mph24%30.02 "Hg10 mi
3:53 PM60 °FSunny.15 mph23%30.03 "Hg10 mi
2:53 PM60 °FSunny.14 mph21%30.05 "Hg10 mi
1:53 PM59 °FSunny.17 mph22%30.08 "Hg10 mi
12:53 PM57 °FSunny.16 mph22%30.11 "Hg10 mi
11:53 AM56 °FSunny.14 mph24%30.15 "Hg10 mi
10:53 AM52 °FSunny.12 mph34%30.18 "Hg10 mi
9:53 AM48 °FSunny.9 mph43%30.18 "Hg10 mi
8:53 AM43 °FPassing clouds.12 mph56%30.17 "Hg10 mi
7:53 AM37 °FPassing clouds.7 mph79%30.16 "Hg10 mi
6:53 AM36 °FPassing clouds.No wind82%30.12 "Hg10 mi
5:53 AM39 °FPassing clouds.3 mph73%30.12 "Hg10 mi
Weather by CustomWeather, © 2016

See weather overviewHow to use our weather pages